SCP
0 0 0 0 0 0 0 0 0 0 0 0 0 0 0 0 0 0 0 0 0 0 0 0 0 0 0 0 0 0 0 0
0 0 0 0 0 0 0 0 0 0 0 0 0 0 0 0 0 0 0 0 0 0 0 0 0 0 0 0 0 0 0 0
0 0 0 0 0 0 0 0 0 0 0 0 0 0 0 0 0 0 0 0 0 0 0 0 0 0 0 0 0 0 0 0
0 0 0 0 0 0 0 0 0 0 0 0 0 0 0 0 0 0 0 0 0 0 0 0 0 0 0 0 0 0 0 0
0 0 0 0 0 0 0 0 0 0 0 0 0 0 0 0 0 0 0 0 0 0 0 0 0 0 0 0 0 0 0 0
0 0 0 0 0 0 0 0 0 0 0 0 0 0 0 0 0 0 0 0 0 0 0 0 0 0 0 0 0 0 0 0
0 0 0 0 0 0 0 0 0 0 0 0 0 0 0 0 0 0 0 0 0 0 0 0 0 0 0 0 0 0 0 0
0 0 0 0 0 0 0 0 0 0 0 0 0 0 0 0 0 0 0 0 0 0 0 0 0 0 0 0 0 0 0 0
0 0 0 0 0 0 0 0 0 0 0 0 0 0 0 0 0 0 0 0 0 0 0 0 0 0 0 0 0 0 0 0
0 0 0 0 0 0 0 0 0 0 0 0 0 0 0 0 0 0 0 0 0 0 0 0 0 0 0 0 0 0 0 0
0 0 0 0 0 0 0 0 0 0 0 0 0 0 0 0 0 0 0 0 0 0 0 0 0 0 0 0 0 0 0 0
0 0 0 0 0 0 0 0 0 0 0 0 0 0 0 0 0 0 0 0 0 0 0 0 0 0 0 0 -0 0 0 0
0 0 0 0 0 0 0 0 0 0 0 0 0 0 0 0 0 0 0 0 0 0 0 0 0 0 0 0 0 0 0 0
0 0 0 0 0 0 0 0 0 0 0 0 0 0 0 0 0 0 0 0 0 0 0 0 0 0 0 0 0 0 0 0
0 0 0 0 0 0 0 0 0 0 0 0 0 0 0 0 0 0 0 0 0 0 0 0 0 0 0 0 0 0 0 0
0 0 0 0 0 0 0 0 0 0 0 0 0 0 0 0 0 0 0 0 0 0 0 0 0 0 0 0 0 0 0 0
0 0 0 0 0 0 0 0 0 0 0 0 0 0 0 0 0 0 0 0 0 0 0 0 0 0 0 0 0 0 0 -0
0 0 0 0 0 0 0 0 0 0 0 0 0 0 0 0 0 0 0 0 0 0 0 0 0 0 0 0 0 0 0 0
0 0 0 0 0 0 0 0 0 0 0 0 0 0 0 0 0 0 0 0 0 0 0 0 0 0 0 0 0 0 0 0
0 0 0 0 0 0 0 0 0 0 0 0 0 0 0 0 0 0 0 0 0 0 0 0 0 0 0 0 0 0 0 0
Wind_Speed_500mb
36 34 31 26 25 23 20 20 22 15 8 12 10 9 7 6 9 11 14 17 19 22 25 28 30 32 35 37 37 37 36 33
31 28 26 23 22 24 21 20 20 15 18 12 11 11 8 8 9 12 15 20 24 27 30 31 32 33 35 37 37 36 33 28
30 25 23 23 25 23 20 20 16 18 18 14 14 8 7 10 11 15 18 23 26 28 29 30 31 31 32 35 31 21 20 19
26 22 20 20 21 21 18 19 20 20 18 17 12 9 7 12 13 17 17 16 20 20 23 24 26 27 29 32 32 33 30 29
29 25 25 24 11 17 11 8 11 16 15 14 9 9 7 7 9 13 14 16 16 18 21 23 25 26 26 27 29 31 32 29
32 32 38 35 25 25 25 17 17 15 14 12 12 12 6 4 4 8 11 13 16 18 21 23 25 26 28 29 29 29 29 31
33 33 36 39 39 35 26 22 20 17 14 12 10 6 3 3 3 6 11 16 19 20 22 24 26 28 29 31 32 32 30 29
30 30 30 33 29 25 22 17 15 13 10 10 8 8 7 6 7 9 11 14 17 21 24 26 27 28 30 33 33 30 31 29
38 35 32 32 26 23 21 20 15 10 11 12 12 11 12 7 7 10 12 15 18 21 23 26 26 27 31 32 30 28 30 30
38 33 32 28 27 23 20 21 17 14 13 14 13 12 10 7 9 13 14 16 19 22 24 25 25 28 32 31 31 25 29 14
36 34 35 32 30 26 21 23 19 15 12 12 12 11 8 6 9 12 14 17 21 22 22 23 23 26 27 25 23 15 13 26
34 33 30 26 23 21 23 22 19 15 13 10 7 6 5 6 10 12 14 17 20 21 21 21 23 29 26 20 22 16 21 25
27 28 28 25 23 20 19 18 14 12 10 6 4 5 7 9 11 12 13 18 20 21 20 19 23 26 24 18 13 11 19 20
26 24 27 21 22 24 24 23 17 8 5 3 3 4 4 6 9 12 12 13 17 18 19 17 16 25 26 14 4 5 9 25
25 23 28 29 38 37 31 20 15 9 6 2 2 4 6 8 11 11 11 11 12 16 16 18 15 19 24 18 8 6 20 6
30 31 35 37 23 20 20 13 28 24 15 2 5 7 9 10 10 9 8 9 9 12 15 15 14 18 15 23 13 12 10 18
33 34 29 33 38 34 35 38 30 19 8 4 1 3 4 5 6 6 5 6 9 12 14 15 17 17 18 17 17 9 12 7
36 37 36 34 34 31 32 28 23 16 12 9 6 3 2 3 3 3 3 5 7 11 13 15 17 19 18 17 19 15 18 17
44 33 29 30 29 29 25 24 24 20 20 13 7 5 5 3 1 1 5 8 10 13 13 14 17 19 21 19 19 19 20 16
36 39 32 30 29 26 26 25 25 23 19 19 16 12 7 4 3 4 5 8 13 12 11 13 13 14 17 19 24 25 21 20
Wind_Direction_500mb
186 189 194 193 188 187 178 173 169 158 243 204 212 221 222 251 271 281 289 296 306 307 307 307 308 306 303 299 296 293 292 295
182 188 200 198 196 184 163 174 203 183 204 209 222 232 242 259 267 284 299 304 307 309 307 304 302 301 298 300 302 306 305 301
188 191 193 199 189 189 167 164 171 180 201 212 229 240 274 273 289 298 308 308 306 306 305 303 301 298 300 299 305 304 288 267
175 175 163 161 164 170 166 175 184 191 194 193 210 234 249 285 301 306 303 305 308 314 311 313 316 315 309 307 302 295 284 277
170 164 146 113 157 98 100 159 179 184 191 205 205 246 261 277 305 317 327 340 342 341 338 341 336 331 326 320 312 305 299 286
169 161 145 167 157 167 186 189 187 209 198 214 206 238 247 271 336 344 353 357 3 2 360 356 354 349 344 337 330 320 306 295
168 170 172 166 173 183 185 182 195 206 213 204 210 210 175 92 65 28 16 15 10 7 4 2 1 356 352 346 337 328 323 316
162 165 166 166 189 185 182 187 190 205 195 180 170 136 129 102 75 48 29 20 11 7 4 4 2 358 351 343 340 339 333 329
168 176 173 179 177 167 181 169 183 184 156 146 138 133 113 97 70 42 25 14 9 5 3 0 359 357 350 348 352 347 346 4
176 174 173 166 174 168 172 162 162 162 153 139 126 114 104 79 40 27 16 2 355 353 354 357 357 355 354 359 349 21 24 15
170 176 176 181 175 178 165 152 157 157 149 129 112 98 81 48 25 15 5 351 347 352 352 354 354 356 355 5 35 14 327 4
181 177 177 167 156 147 146 148 154 157 136 117 96 84 58 8 8 7 355 347 347 354 358 5 350 356 3 31 67 300 4 45
169 180 166 150 140 140 135 149 156 149 134 124 92 41 21 5 351 360 354 345 351 354 360 8 347 0 12 68 60 296 49 37
188 181 145 136 148 159 166 156 169 150 106 90 57 39 0 8 354 357 5 352 353 357 2 20 12 5 23 63 56 201 26 61
185 174 158 169 188 186 183 161 131 96 68 175 92 40 21 8 2 3 358 356 356 359 12 17 36 22 29 48 48 345 356 272
182 177 180 190 175 169 129 111 151 177 201 241 43 20 13 9 359 353 350 355 11 12 21 28 31 33 40 61 38 14 343 328
188 190 184 176 171 182 164 179 193 197 189 161 50 37 352 348 340 339 343 13 24 22 24 32 30 31 37 46 71 62 320 358
188 184 194 189 188 175 184 185 182 176 162 169 175 228 306 315 308 324 13 43 50 43 34 41 40 39 39 37 53 51 26 24
198 192 190 187 180 180 185 180 177 173 164 176 170 209 249 196 197 39 57 66 73 58 58 49 47 50 43 28 42 44 42 25
185 190 198 184 180 183 179 176 170 169 178 167 185 209 215 175 125 101 92 88 82 102 89 72 74 57 73 52 22 36 43 40
Wind_Speed_850mb
36 34 31 26 25 23 20 20 22 15 8 12 10 9 7 6 9 11 14 17 19 22 25 28 30 32 35 37 37 37 36 33
31 28 26 23 22 24 21 20 20 15 18 12 11 11 8 8 9 12 15 20 24 27 30 31 32 33 35 37 37 36 33 28
30 25 23 23 25 23 20 20 16 18 18 14 14 8 7 10 11 15 18 23 26 28 29 30 31 31 32 35 31 21 20 19
26 22 20 20 21 21 18 19 20 20 18 17 12 9 7 12 13 17 17 16 20 20 23 24 26 27 29 32 32 33 30 29
29 25 25 24 11 17 11 8 11 16 15 14 9 9 7 7 9 13 14 16 16 18 21 23 25 26 26 27 29 31 32 29
32 32 38 35 25 25 25 17 17 15 14 12 12 12 6 4 4 8 11 13 16 18 21 23 25 26 28 29 29 29 29 31
33 33 36 39 39 35 26 22 20 17 14 12 10 6 3 3 3 6 11 16 19 20 22 24 26 28 29 31 32 32 30 29
30 30 30 33 29 25 22 17 15 13 10 10 8 8 7 6 7 9 11 14 17 21 24 26 27 28 30 33 33 30 31 29
38 35 32 32 26 23 21 20 15 10 11 12 12 11 12 7 7 10 12 15 18 21 23 26 26 27 31 32 30 28 30 30
38 33 32 28 27 23 20 21 17 14 13 14 13 12 10 7 9 13 14 16 19 22 24 25 25 28 32 31 31 25 29 14
36 34 35 32 30 26 21 23 19 15 12 12 12 11 8 6 9 12 14 17 21 22 22 23 23 26 27 25 23 15 13 26
34 33 30 26 23 21 23 22 19 15 13 10 7 6 5 6 10 12 14 17 20 21 21 21 23 29 26 20 22 16 21 25
27 28 28 25 23 20 19 18 14 12 10 6 4 5 7 9 11 12 13 18 20 21 20 19 23 26 24 18 13 11 19 20
26 24 27 21 22 24 24 23 17 8 5 3 3 4 4 6 9 12 12 13 17 18 19 17 16 25 26 14 4 5 9 25
25 23 28 29 38 37 31 20 15 9 6 2 2 4 6 8 11 11 11 11 12 16 16 18 15 19 24 18 8 6 20 6
30 31 35 37 23 20 20 13 28 24 15 2 5 7 9 10 10 9 8 9 9 12 15 15 14 18 15 23 13 12 10 18
33 34 29 33 38 34 35 38 30 19 8 4 1 3 4 5 6 6 5 6 9 12 14 15 17 17 18 17 17 9 12 7
36 37 36 34 34 31 32 28 23 16 12 9 6 3 2 3 3 3 3 5 7 11 13 15 17 19 18 17 19 15 18 17
44 33 29 30 29 29 25 24 24 20 20 13 7 5 5 3 1 1 5 8 10 13 13 14 17 19 21 19 19 19 20 16
36 39 32 30 29 26 26 25 25 23 19 19 16 12 7 4 3 4 5 8 13 12 11 13 13 14 17 19 24 25 21 20
Wind_Direction_850mb
186 189 194 193 188 187 178 173 169 158 243 204 212 221 222 251 271 281 289 296 306 307 307 307 308 306 303 299 296 293 292 295
182 188 200 198 196 184 163 174 203 183 204 209 222 232 242 259 267 284 299 304 307 309 307 304 302 301 298 300 302 306 305 301
188 191 193 199 189 189 167 164 171 180 201 212 229 240 274 273 289 298 308 308 306 306 305 303 301 298 300 299 305 304 288 267
175 175 163 161 164 170 166 175 184 191 194 193 210 234 249 285 301 306 303 305 308 314 311 313 316 315 309 307 302 295 284 277
170 164 146 113 157 98 100 159 179 184 191 205 205 246 261 277 305 317 327 340 342 341 338 341 336 331 326 320 312 305 299 286
169 161 145 167 157 167 186 189 187 209 198 214 206 238 247 271 336 344 353 357 3 2 360 356 354 349 344 337 330 320 306 295
168 170 172 166 173 183 185 182 195 206 213 204 210 210 175 92 65 28 16 15 10 7 4 2 1 356 352 346 337 328 323 316
162 165 166 166 189 185 182 187 190 205 195 180 170 136 129 102 75 48 29 20 11 7 4 4 2 358 351 343 340 339 333 329
168 176 173 179 177 167 181 169 183 184 156 146 138 133 113 97 70 42 25 14 9 5 3 0 359 357 350 348 352 347 346 4
176 174 173 166 174 168 172 162 162 162 153 139 126 114 104 79 40 27 16 2 355 353 354 357 357 355 354 359 349 21 24 15
170 176 176 181 175 178 165 152 157 157 149 129 112 98 81 48 25 15 5 351 347 352 352 354 354 356 355 5 35 14 327 4
181 177 177 167 156 147 146 148 154 157 136 117 96 84 58 8 8 7 355 347 347 354 358 5 350 356 3 31 67 300 4 45
169 180 166 150 140 140 135 149 156 149 134 124 92 41 21 5 351 360 354 345 351 354 360 8 347 0 12 68 60 296 49 37
188 181 145 136 148 159 166 156 169 150 106 90 57 39 0 8 354 357 5 352 353 357 2 20 12 5 23 63 56 201 26 61
185 174 158 169 188 186 183 161 131 96 68 175 92 40 21 8 2 3 358 356 356 359 12 17 36 22 29 48 48 345 356 272
182 177 180 190 175 169 129 111 151 177 201 241 43 20 13 9 359 353 350 355 11 12 21 28 31 33 40 61 38 14 343 328
188 190 184 176 171 182 164 179 193 197 189 161 50 37 352 348 340 339 343 13 24 22 24 32 30 31 37 46 71 62 320 358
188 184 194 189 188 175 184 185 182 176 162 169 175 228 306 315 308 324 13 43 50 43 34 41 40 39 39 37 53 51 26 24
198 192 190 187 180 180 185 180 177 173 164 176 170 209 249 196 197 39 57 66 73 58 58 49 47 50 43 28 42 44 42 25
185 190 198 184 180 183 179 176 170 169 178 167 185 209 215 175 125 101 92 88 82 102 89 72 74 57 73 52 22 36 43 40